[[{"header":{"parameterUnit":"m.s-1","parameterCategory":1,"la1":30.2992,"la2":30.254,"lo1":-89.0895,"lo2":-89.0443,"dy":0.0025,"dx":0.0025,"nx":19,"ny":19,"refTime":"2026-04-11T21:00:00:Z","depth":0,"parameterNumber":2,"parameterNumberName":"U-component_of_WINDS"},"data":[0,0,0,-0.8405,-0.8405,-0.8381,-0.8381,-0.8356,-0.8355,0,0,0,0,0,0,0,0,0,0,0,-0.8415,-0.8415,-0.8405,-0.8405,-0.8381,-0.8381,-0.8356,-0.8355,0,0,0,0,0,0,0,0,0,0,0,-0.8415,-0.8415,-0.8415,-0.8405,-0.8381,-0.8381,-0.8356,-0.8372,0,0,0,0,0,0,0,0,0,0,-0.8394,-0.8406,-0.8415,-0.8415,-0.8405,-0.8381,-0.8381,-0.8373,-0.8371,-0.8368,0,-0.8367,0,-0.8361,-0.8354,-0.8354,0,0,0,-0.8403,-0.8407,-0.8398,-0.8415,-0.8405,-0.8381,-0.8391,-0.8372,-0.837,-0.8366,-0.8367,-0.8365,-0.836,-0.8354,-0.8354,-0.8348,-0.8348,0,0,-0.8404,-0.8412,-0.84,-0.8397,-0.8401,-0.8392,-0.8391,-0.837,-0.8371,-0.8366,-0.8365,-0.836,-0.8354,-0.8354,-0.8348,-0.8348,0,0,0,-0.8409,-0.8413,-0.8405,-0.8398,-0.8394,-0.8391,-0.839,-0.8372,-0.8369,-0.8364,-0.836,-0.8354,-0.8353,-0.8348,-0.8348,-0.836,0,0,0,-0.841,-0.8416,-0.8406,-0.841,-0.8394,-0.8383,-0.8392,-0.837,-0.8367,-0.836,-0.8354,-0.8353,-0.8348,-0.8348,-0.836,-0.8365,0,0,0,-0.8416,-0.8417,-0.8415,-0.8411,-0.8401,-0.8383,-0.8378,-0.8369,-0.8365,-0.8354,-0.8353,-0.8348,-0.8348,-0.8359,-0.8364,-0.8366,0,0,0,-0.8424,-0.8425,-0.8415,-0.8414,-0.8401,-0.8391,-0.8378,-0.837,-0.8362,-0.8354,-0.8348,-0.8348,-0.8359,-0.8363,-0.8366,-0.837,-0.8373,0,0,-0.843,-0.8426,-0.8425,-0.8415,-0.8409,-0.8394,-0.8389,-0.8373,-0.8364,-0.8354,-0.8354,-0.836,-0.8364,-0.8366,-0.8383,-0.8385,0,0,0,-0.843,-0.8429,-0.8426,-0.8419,-0.8408,-0.8399,-0.8383,-0.8378,-0.8369,-0.8361,-0.8361,-0.8363,-0.8364,-0.8366,-0.8367,-0.8368,-0.8349,-0.8349,-0.8349,-0.845,-0.8439,-0.8437,-0.8424,-0.8418,-0.8402,-0.8396,-0.8386,-0.8376,-0.8377,-0.8374,-0.8385,-0.8388,-0.8389,-0.839,-0.8375,-0.8375,-0.8375,-0.8375,-0.8458,-0.8456,-0.8444,-0.8438,-0.8427,-0.8421,-0.8407,-0.84,-0.8394,-0.8386,-0.8387,-0.838,-0.8391,-0.8392,-0.8376,-0.8376,-0.8375,-0.8375,-0.8375,-0.847,-0.8468,-0.8461,-0.8451,-0.8445,-0.8431,-0.8426,-0.8416,-0.8406,-0.8406,-0.8403,-0.8402,-0.8401,-0.8405,-0.8405,-0.8405,-0.8405,-0.8405,-0.8405,-0.8486,-0.8478,-0.8475,-0.8465,-0.846,-0.8452,-0.8437,-0.8432,-0.8423,-0.8416,-0.8416,-0.8407,-0.8394,-0.8392,-0.8406,-0.8406,-0.8406,-0.8406,-0.8406,-0.8499,-0.8495,-0.849,-0.8485,-0.8472,-0.8467,-0.8454,-0.8445,-0.8439,-0.8437,-0.8428,-0.842,-0.8415,-0.8413,-0.8411,-0.843,-0.843,-0.843,-0.843,-0.851,-0.8507,-0.85,-0.8493,-0.8485,-0.8473,-0.8469,-0.8459,-0.8446,-0.8442,-0.8438,-0.8434,-0.8433,-0.8429,-0.8427,-0.8425,-0.8446,-0.8446,-0.8446,-0.8518,-0.8513,-0.8512,-0.85,-0.8489,-0.8481,-0.8477,-0.847,-0.8455,-0.8447,-0.8439,-0.8439,-0.8432,-0.843,-0.8422,-0.842,-0.8415,0,0]},{"header":{"parameterUnit":"m.s-1","parameterCategory":1,"la1":30.2992,"la2":30.254,"lo1":-89.0895,"lo2":-89.0443,"dy":0.0025,"dx":0.0025,"nx":19,"ny":19,"refTime":"2026-04-11T21:00:00:Z","depth":0,"parameterNumber":3,"parameterNumberName":"V-component_of_WINDS"},"data":[0,0,0,1.2312,1.2313,1.2341,1.2341,1.2387,1.2388,0,0,0,0,0,0,0,0,0,0,0,1.231,1.231,1.2312,1.2313,1.2341,1.2341,1.2387,1.2388,0,0,0,0,0,0,0,0,0,0,0,1.2309,1.231,1.2311,1.2313,1.2341,1.2341,1.2387,1.2362,0,0,0,0,0,0,0,0,0,0,1.2333,1.2336,1.231,1.2311,1.2313,1.2341,1.2341,1.2361,1.2363,1.2378,0,1.2394,0,1.2391,1.2391,1.2391,0,0,0,1.2308,1.2334,1.2336,1.2311,1.2313,1.2341,1.2327,1.2362,1.2365,1.2382,1.2394,1.2395,1.2392,1.2392,1.2392,1.2496,1.2497,0,0,1.2307,1.2318,1.2334,1.2339,1.2336,1.2326,1.2328,1.2364,1.2377,1.2394,1.2396,1.2393,1.2392,1.2392,1.2495,1.2496,0,0,0,1.2305,1.2317,1.2318,1.2337,1.2342,1.2327,1.2329,1.2376,1.2375,1.2397,1.2393,1.2392,1.2393,1.2494,1.2495,1.2544,0,0,0,1.2304,1.2316,1.2318,1.2325,1.2341,1.2359,1.234,1.2373,1.2376,1.2393,1.2392,1.2393,1.2494,1.2495,1.2541,1.2565,0,0,0,1.2306,1.2316,1.2323,1.2325,1.2338,1.2358,1.236,1.2373,1.2375,1.2391,1.2394,1.2493,1.2495,1.2538,1.2561,1.2598,0,0,0,1.2311,1.2363,1.2324,1.2381,1.2338,1.2387,1.2359,1.2395,1.2415,1.2393,1.2494,1.2495,1.2537,1.2558,1.2595,1.2634,1.265,0,0,1.2384,1.2373,1.2406,1.2371,1.2431,1.2382,1.2449,1.2455,1.2446,1.248,1.2482,1.2542,1.256,1.2598,1.2733,1.2746,0,0,0,1.2433,1.2457,1.247,1.2491,1.2498,1.2506,1.2501,1.2504,1.2533,1.2466,1.2563,1.2574,1.2596,1.2614,1.2625,1.2644,1.2503,1.2503,1.2503,1.2554,1.254,1.2594,1.2584,1.2604,1.2599,1.2614,1.2617,1.2595,1.2618,1.2629,1.2713,1.2735,1.2743,1.2763,1.2646,1.2646,1.2646,1.2646,1.2662,1.2695,1.2666,1.2709,1.2694,1.2729,1.2727,1.271,1.2742,1.2703,1.2721,1.2684,1.2758,1.2774,1.265,1.2649,1.2649,1.2648,1.2648,1.2742,1.2756,1.2758,1.2788,1.2811,1.2798,1.283,1.2813,1.2798,1.2815,1.2827,1.2826,1.2826,1.2821,1.2822,1.2822,1.2822,1.2823,1.2823,1.2826,1.2827,1.2857,1.2869,1.2881,1.2894,1.289,1.2901,1.2909,1.2894,1.2894,1.2873,1.2767,1.2742,1.2827,1.2826,1.2826,1.2825,1.2825,1.2946,1.2916,1.2962,1.2974,1.2988,1.3014,1.2992,1.3016,1.3022,1.3039,1.3012,1.2936,1.2923,1.2914,1.2894,1.3014,1.3014,1.3014,1.3014,1.3016,1.3007,1.3052,1.3072,1.309,1.3076,1.3129,1.3126,1.3118,1.3121,1.3101,1.3072,1.3063,1.3056,1.3044,1.3025,1.3175,1.3175,1.3175,1.309,1.3083,1.3132,1.3125,1.3135,1.3144,1.3194,1.3219,1.3203,1.3181,1.3124,1.3117,1.307,1.3055,1.3034,1.3016,1.2981,0,0]}]]